Погода в Нойштадте

Германия     49°21′03″N   8°08′27″E
темп.,
°C
ветер,
м/с
пор.,
м/с
влажн.,
%
обл.,
%
осадки,
мм/ч
давл.,
гПа
погр.,
м
10 мая, пн
пн1023:00+18сз2279100 0.4 100617
02:00+15вюв118890 1.2 100512
05:00+14зюз1291100 0.1 100530
08:00+16ююз1289100 0.4 1007224
11:00+18зюз6970100 0.0 1009805
14:00+18з4764100 0.0 1010900
17:00+16зюз1369100 0.1 1011641
20:00+13ссз2296100 3.6 1010145
11 мая, вт
вт1123:00+12з2396100 2.6 1010162
02:00+12з1396100 3.8 1009115
05:00+11з2694100 0.6 1009308
08:00+11з1292100 0.9 1009104
11:00+13зюз2283100 0.0 1009466
14:00+14ююз2381100 0.7 1009525
17:00+15зюз337668 1.0 1008877
20:00+14юз2487100 1.6 1008119
12 мая, ср
ср1223:00+12юз4693100 0.3 1009196
02:00+11юз3795100 0.4 1009273
05:00+11зюз3598100 2.0 1009263
08:00+11зюз2495100 3.3 1010188
11:00+13зсз568176 0.6 1009887
14:00+13сз6977100 1.3 1010921
17:00+12зсз3678100 0.2 1010646
20:00+11юз3495100 1.1 1010137
13 мая, чт
чт1323:00+10зюз2393100 0.1 101178
02:00+10з2393100 0.2 101079
05:00+10з2495100 0.7 1009166
08:00+10сз268899 1.1 1009509
11:00+13сз3465100 0.1 10091173
14:00+14с2558100 0.1 10081190
17:00+12всв4477100 0.1 1008320
20:00+10в1287100 0.2 1009140
14 мая, пт
пт1423:00+10ююз119096 0.0 100931
02:00+8зюз119190 0.0 100914
05:00+8юз2290100 0.0 100918
08:00+11юз1279100 0.0 1010159
11:00+15юз1264100 0.0 1010893
14:00+17ююв2254100 0.4 10091202
17:00+17зюз2257100 0.5 10091002
20:00+15сз227020 0.6 100937